Location: Altleiningen
(49.5078°N, 8.0741°E)
Time: 23:58:30
(UTC+00:00)

Cosmos 1898 Rocket - Pass Details

Date: 03 March 2021
Orbit: 753 x 784 km, 74.0° (Epoch: 13 April)

Event Time Altitude Azimuth Distance (km) Brightness Sun altitude
Rises 19:51:35 0° 339° (NNW) 3,228 7.3 -26.0°
Reaches altitude 10° 19:54:03 10° 345° (NNW) 2,303 6.4 -26.3°
Enters shadow 19:57:55 40° 22° (NNE) 1,115 4.3 -26.9°
